Terminal Aerodrome Forecast
Issued by NWS

Home | Current Version | Previous Version | Text Only | Print | Product List | Glossary On
Versions: 1 2 3 4 5 6 7 8 9 10 11 12 13 14 15 16 17 18 19 20 21 22 23 24 25 26 27 28
000
FTUS45 KSLC 260326 AAA
TAFPVU
TAF AMD
KPVU 260326Z 2603/2624 17008KT P6SM -RA SCT010 OVC040
      TEMPO 2603/2605 BKN010
     FM260900 32012G18KT 6SM -SHRA SCT025 OVC050
     FM261200 34007KT P6SM VCSH SCT020 BKN050
      AMD LTD TO CLD VIS AND WIND=

USA.gov is the U.S. government's official web portal to all federal, state and local government web resources and services.